Slidell, LA

5:53 AM CDT on June 28, 2017 (GMT -0500)
Slidell

Weather History for KASD - February, 2013

Change the Weather History Date:

Wednesday, February 13, 2013

  Actual Average (KNEW) Record (KNEW)
Temperature  
Mean Temperature 52 °F -  
Max Temperature 62 °F 64 °F 81 °F (1959)
Min Temperature 39 °F 49 °F 25 °F (1958)
Degree Days  
Heating Degree Days 14    
Growing Degree Days 2 (Base 50)    
Moisture  
Dew Point 49 °F    
Average Humidity 93    
Maximum Humidity 100    
Minimum Humidity 80    
Precipitation  
Precipitation 0.16 in - - ()
Sea Level Pressure  
Sea Level Pressure 29.97 in    
Wind  
Wind Speed 6 mph (NW)    
Max Wind Speed 12 mph    
Max Gust Speed 21 mph    
Visibility 9 miles    
Events Rain    
Averages and records for this station are not official NWS values.
T = Trace of Precipitation, MM = Missing Value Source: NWS Daily Summary

Daily Weather History Graph

Daily Weather History Graph

Search for Another Location

Airport or City:

Trip Planner

Search our weather history database for the weather conditions in past years. The results will help you decide how hot, cold, wet, or windy it might be!

Date:

Astronomy

Feb. 13, 2013 Rise Set
Actual Time 6:41 AM CST 5:46 PM CST
Civil Twilight 6:16 AM CST 6:10 PM CST
Nautical Twilight 5:48 AM CST 6:39 PM CST
Astronomical Twilight 5:20 AM CST 7:07 PM CST
Moon 8:29 AM CST (2/13) 9:27 PM CST (2/13)
Length of Visible Light 11h 54m
Length of Day
11h 05m
Waxing Crescent, 14% of the Moon is Illuminated
Feb 13
Waxing Crescent
Feb 17
First Quarter
Feb 25
Full
Mar 4
Last Quarter
Mar 11
New

Hourly Weather History & Observations

Time (CST) Temp. Dew Point Humidity Pressure Visibility Wind Dir Wind Speed Gust Speed Precip Events Conditions
12:35 AM 62.6 °F 60.8 °F 94% 29.83 in 10.0 mi NW 9.2 mph - N/A   Mostly Cloudy
12:42 AM 60.8 °F 60.8 °F 100% 29.84 in 10.0 mi NW 11.5 mph 19.6 mph N/A   Scattered Clouds
12:53 AM 60.1 °F 59.0 °F 96% 29.85 in 10.0 mi NW 11.5 mph 20.7 mph N/A   Partly Cloudy
1:34 AM 57.2 °F 57.2 °F 100% 29.86 in 10.0 mi NW 11.5 mph 19.6 mph N/A   Mostly Cloudy
1:49 AM 57.2 °F 55.4 °F 94% 29.86 in 10.0 mi NW 9.2 mph 17.3 mph N/A   Partly Cloudy
1:53 AM 57.0 °F 55.0 °F 93% 29.86 in 10.0 mi NW 9.2 mph 17.3 mph N/A   Partly Cloudy
2:53 AM 55.0 °F 53.1 °F 93% 29.88 in 10.0 mi NW 5.8 mph - N/A   Clear
3:53 AM 53.1 °F 52.0 °F 96% 29.88 in 10.0 mi Variable 4.6 mph - N/A   Clear
4:53 AM 53.1 °F 51.1 °F 93% 29.91 in 10.0 mi NW 4.6 mph - N/A   Mostly Cloudy
6:53 AM 51.1 °F 48.9 °F 92% 29.95 in 10.0 mi Variable 3.5 mph - N/A   Partly Cloudy
7:53 AM 52.0 °F 48.9 °F 89% 29.96 in 10.0 mi NW 4.6 mph - N/A   Partly Cloudy
8:53 AM 53.1 °F 48.0 °F 83% 29.96 in 10.0 mi NNW 8.1 mph 16.1 mph N/A   Mostly Cloudy
9:53 AM 54.0 °F 48.0 °F 80% 29.97 in 10.0 mi Variable 6.9 mph 16.1 mph N/A   Overcast
10:53 AM 53.1 °F 48.0 °F 83% 29.99 in 10.0 mi WNW 6.9 mph 16.1 mph 0.00 in Rain Light Rain
11:53 AM 48.9 °F 48.0 °F 97% 30.00 in 5.0 mi North 5.8 mph - 0.09 in Rain Light Rain
12:29 PM 48.2 °F 48.2 °F 100% 30.02 in 4.0 mi Calm Calm - 0.04 in Rain Rain
12:39 PM 48.2 °F 48.2 °F 100% 30.00 in 5.0 mi Calm Calm - 0.05 in Rain Light Rain
12:47 PM 48.2 °F 48.2 °F 100% 29.99 in 8.0 mi NNW 4.6 mph - 0.06 in Rain Light Rain
12:53 PM 48.9 °F 48.0 °F 97% 30.00 in 9.0 mi Calm Calm - 0.06 in Rain Light Rain
1:22 PM 48.2 °F 46.4 °F 93% 30.00 in 10.0 mi WNW 3.5 mph - 0.00 in Rain Light Rain
1:53 PM 48.0 °F 46.9 °F 96% 30.00 in 10.0 mi Calm Calm - 0.00 in   Overcast
2:35 PM 48.2 °F 46.4 °F 93% 29.99 in 10.0 mi WNW 5.8 mph - N/A   Mostly Cloudy
2:53 PM 50.0 °F 46.9 °F 89% 29.99 in 10.0 mi Calm Calm - N/A   Mostly Cloudy
3:10 PM 50.0 °F 46.4 °F 87% 29.99 in 10.0 mi Calm Calm - N/A   Scattered Clouds
3:53 PM 50.0 °F 48.0 °F 93% 29.99 in 10.0 mi Calm Calm - N/A   Partly Cloudy
4:53 PM 51.1 °F 46.9 °F 86% 29.99 in 10.0 mi Calm Calm - N/A   Mostly Cloudy
5:53 PM 50.0 °F 46.0 °F 86% 30.01 in 10.0 mi Calm Calm - N/A   Mostly Cloudy
6:53 PM 48.0 °F 46.0 °F 93% 30.02 in 10.0 mi Calm Calm - N/A   Clear
7:53 PM 46.9 °F 45.0 °F 93% 30.04 in 10.0 mi Calm Calm - N/A   Mostly Cloudy
8:53 PM 44.1 °F 43.0 °F 96% 30.06 in 10.0 mi Calm Calm - 0.01 in   Clear
9:53 PM 42.1 °F 42.1 °F 100% 30.08 in 10.0 mi Calm Calm - N/A   Clear
10:53 PM 41.0 °F 41.0 °F 100% 30.08 in 10.0 mi Calm Calm - N/A   Clear
11:53 PM 39.9 °F 39.9 °F 100% 30.07 in 10.0 mi Calm Calm - N/A   Clear